Simultaneous Nadir Overpasses (SNOs) Predictions

Prediction of SNOs between GOES-17 and METOP-B Satellite Orbit:

Table of predicted SNOs for the next 14.0 days since TLE Epoch: 3/4/2023
Index Date Time (GOES-17) GOES-17 Lat,Lon METOP-B Lat,Lon Distance(km) Time Diff (sec)
1 03/05/2023 04:38:21 0.00,-104.69 -0.45,-106.62 220.99 80
2 03/06/2023 04:15:02 0.00,-104.69 0.67,-101.63 348.38 80
3 03/07/2023 16:33:53 -0.00,-104.72 0.35,-106.19 167.78 80
4 03/08/2023 16:15:53 -0.01,-104.73 -0.78,-101.20 401.87 80
5 03/10/2023 04:34:54 0.01,-104.71 -0.21,-105.80 124.08 80
6 03/11/2023 04:11:33 0.01,-104.71 0.87,-100.80 445.43 80
7 03/12/2023 16:30:24 -0.01,-104.74 0.14,-105.36 70.93 80
8 03/13/2023 16:12:25 -0.01,-104.74 -1.00,-100.37 498.40 80
9 03/15/2023 04:31:23 0.01,-104.71 -0.08,-104.95 28.21 80
10 03/17/2023 16:29:35 -0.01,-104.73 -0.08,-104.52 24.10 80
